Location: Newark
(34.9756°N, 138.3828°E)
Time: 23:43:45
(UTC+00:00)

N. Korean satellite - Pass Details

Date: 18 December 2019
Orbit: 454 x 507 km, 97.2° (Epoch: 21 January)

Event Time Altitude Azimuth Distance (km) Brightness Sun altitude
Rises 09:00:28 0° 214° (SSW) 2,593 11.1 -16.6°
Reaches altitude 10° 09:04:07 10° 252° (WSW) 1,708 10.7 -17.3°
Maximum altitude 09:05:04 11° 267° (W) 1,657 10.4 -17.5°
Drops below altitude 10° 09:06:01 10° 282° (WNW) 1,706 10.2 -17.7°
Sets 09:09:41 0° 321° (NW) 2,583 10.6 -18.4°
